World > North America > United States > North Dakota

Ross, North Dakota Regional Weather

Lat: 48.31N, Lon: 102.55W
Wx Zone: NDZ010
Warning NWS WEATHER ALERT - (More Info. Click Here) Warning
Feedback

Ross, ND Regional Weather

Expires:201909192000;;036342
ASUS43 KBIS 191910
RWRND 

NORTH DAKOTA REGIONAL WEATHER ROUNDUP
NATIONAL WEATHER SERVICE BISMARCK ND
200 PM CDT THU SEP 19 2019

NOTE: "FAIR" INDICATES FEW OR NO CLOUDS BELOW 12,000 FEET WITH NO
SIGNIFICANT WEATHER AND/OR OBSTRUCTIONS TO VISIBILITY.



NDZ001>003-009>011-017-192000-
NORTHWEST NORTH DAKOTA
  
CITY           SKY/WX    TMP DP  RH WIND       PRES   REMARKS
WILLISTON      MOSUNNY   78  55  44 SE16G35   29.84F                  
MINOT          SUNNY     77  61  57 E13       29.93F                  
MINOT AFB      SUNNY     74  60  62 E13       29.92F                  
$$
 

SKY/WX - Weather  TMP - Temperature  DP - Dew Point  RH - Relative Humidity
WIND - Wind Direction/Speed PRES - Barometric Pressure VSB - Visibility
WCI - Wind Chill Index E13G22 Wind - East Wind 13 mph/Gusts of 22 mph